Year,Month,Day,Hour,Minute,Value (Times are PST for temperature in C)
2018,11,15,00,00,10.20
2018,11,15,00,01,10.20
2018,11,15,00,02,10.10
2018,11,15,00,03,10.10
2018,11,15,00,04,10.10
2018,11,15,00,05,10.10
2018,11,15,00,06,10.10
2018,11,15,00,07,10.10
2018,11,15,00,08,10.10
2018,11,15,00,09,10.00
2018,11,15,00,10,10.00
2018,11,15,00,11,9.90
2018,11,15,00,12,9.90
2018,11,15,00,13,9.90
2018,11,15,00,14,9.80
2018,11,15,00,15,9.80
2018,11,15,00,16,9.80
2018,11,15,00,17,9.80
2018,11,15,00,18,9.80
2018,11,15,00,19,9.80
2018,11,15,00,20,9.80
2018,11,15,00,21,9.80
2018,11,15,00,22,9.80
2018,11,15,00,23,9.80
2018,11,15,00,24,9.80
2018,11,15,00,25,9.80
2018,11,15,00,26,9.70
2018,11,15,00,27,9.70
2018,11,15,00,28,9.60
2018,11,15,00,29,9.60
2018,11,15,00,30,9.50
2018,11,15,00,31,9.50
2018,11,15,00,32,9.40
2018,11,15,00,33,9.40
2018,11,15,00,34,9.40
2018,11,15,00,35,9.30
2018,11,15,00,36,9.30
2018,11,15,00,37,9.30
2018,11,15,00,38,9.30
2018,11,15,00,39,9.30
2018,11,15,00,40,9.30
2018,11,15,00,41,9.30
2018,11,15,00,42,9.30
2018,11,15,00,43,9.30
2018,11,15,00,44,9.30
2018,11,15,00,45,9.30
2018,11,15,00,46,9.30
2018,11,15,00,47,9.30
2018,11,15,00,48,9.40
2018,11,15,00,49,9.40
2018,11,15,00,50,9.50
2018,11,15,00,51,9.50
2018,11,15,00,52,9.60
2018,11,15,00,53,9.60
2018,11,15,00,54,9.60
2018,11,15,00,55,9.70
2018,11,15,00,56,9.70
2018,11,15,00,57,9.80
2018,11,15,00,58,9.80
2018,11,15,00,59,9.80
2018,11,15,01,00,9.80
2018,11,15,01,01,9.70
2018,11,15,01,02,9.70
2018,11,15,01,03,9.70
2018,11,15,01,04,9.80
2018,11,15,01,05,9.80
2018,11,15,01,06,9.80
2018,11,15,01,07,9.80
2018,11,15,01,08,9.80
2018,11,15,01,09,9.80
2018,11,15,01,10,9.80
2018,11,15,01,11,9.80
2018,11,15,01,12,9.80
2018,11,15,01,13,9.80
2018,11,15,01,14,9.90
2018,11,15,01,15,9.90
2018,11,15,01,16,9.90
2018,11,15,01,17,9.90
2018,11,15,01,18,9.90
2018,11,15,01,19,9.90
2018,11,15,01,20,9.90
2018,11,15,01,21,10.00
2018,11,15,01,22,10.00
2018,11,15,01,23,10.00
2018,11,15,01,24,10.00
2018,11,15,01,25,10.00
2018,11,15,01,26,10.00
2018,11,15,01,27,10.10
2018,11,15,01,28,10.10
2018,11,15,01,29,10.10
2018,11,15,01,30,10.10
2018,11,15,01,31,10.10
2018,11,15,01,32,10.10
2018,11,15,01,33,10.20
2018,11,15,01,34,10.20
2018,11,15,01,35,10.20
2018,11,15,01,36,10.20
2018,11,15,01,37,10.20
2018,11,15,01,38,10.20
2018,11,15,01,39,10.20
2018,11,15,01,40,10.20
2018,11,15,01,41,10.20
2018,11,15,01,42,10.20
2018,11,15,01,43,10.20
2018,11,15,01,44,10.20
2018,11,15,01,45,10.20
2018,11,15,01,46,10.20
2018,11,15,01,47,10.20
2018,11,15,01,48,10.20
2018,11,15,01,49,10.30
2018,11,15,01,50,10.30
2018,11,15,01,51,10.30
2018,11,15,01,52,10.30
2018,11,15,01,53,10.30
2018,11,15,01,54,10.30
2018,11,15,01,55,10.30
2018,11,15,01,56,10.30
2018,11,15,01,57,10.30
2018,11,15,01,58,10.30
2018,11,15,01,59,10.30
2018,11,15,02,00,10.30
2018,11,15,02,01,10.30
2018,11,15,02,02,10.30
2018,11,15,02,03,10.30
2018,11,15,02,04,10.30
2018,11,15,02,05,10.30
2018,11,15,02,06,10.30
2018,11,15,02,07,10.30
2018,11,15,02,08,10.30
2018,11,15,02,09,10.30
2018,11,15,02,10,10.30
2018,11,15,02,11,10.30
2018,11,15,02,12,10.40
2018,11,15,02,13,10.40
2018,11,15,02,14,10.40
2018,11,15,02,15,10.40
2018,11,15,02,16,10.40
2018,11,15,02,17,10.40
2018,11,15,02,18,10.40
2018,11,15,02,19,10.40
2018,11,15,02,20,10.40
2018,11,15,02,21,10.30
2018,11,15,02,22,10.40
2018,11,15,02,23,10.30
2018,11,15,02,24,10.30
2018,11,15,02,25,10.30
2018,11,15,02,26,10.30
2018,11,15,02,27,10.30
2018,11,15,02,28,10.30
2018,11,15,02,29,10.30
2018,11,15,02,30,10.30
2018,11,15,02,31,10.30
2018,11,15,02,32,10.30
2018,11,15,02,33,10.30
2018,11,15,02,34,10.30
2018,11,15,02,35,10.30
2018,11,15,08,10,10.10
2018,11,15,08,11,10.10
2018,11,15,08,12,10.10
2018,11,15,08,13,10.10
2018,11,15,08,14,10.10
2018,11,15,08,15,10.10
2018,11,15,08,16,10.10
2018,11,15,08,17,10.10
2018,11,15,08,18,10.10
2018,11,15,08,19,10.20
2018,11,15,08,20,10.20
2018,11,15,08,21,10.20
2018,11,15,08,22,10.20
2018,11,15,08,23,10.20
2018,11,15,08,24,10.20
2018,11,15,08,25,10.20
2018,11,15,08,26,10.20
2018,11,15,08,27,10.20
2018,11,15,08,28,10.20
2018,11,15,08,29,10.20
2018,11,15,08,30,10.20
2018,11,15,08,31,10.20
2018,11,15,08,32,10.20
2018,11,15,08,33,10.20
2018,11,15,08,34,10.20
2018,11,15,08,35,10.20
2018,11,15,08,36,10.20
2018,11,15,08,37,10.20
2018,11,15,08,38,10.20
2018,11,15,08,39,10.30
2018,11,15,08,40,10.30
2018,11,15,08,41,10.30
2018,11,15,08,42,10.30
2018,11,15,08,43,10.30
2018,11,15,08,44,10.30
2018,11,15,08,45,10.30
2018,11,15,08,46,10.30
2018,11,15,08,47,10.30
2018,11,15,08,48,10.30
2018,11,15,08,49,10.30
2018,11,15,08,50,10.30
2018,11,15,08,51,10.30
2018,11,15,08,52,10.30
2018,11,15,08,53,10.30
2018,11,15,08,54,10.30
2018,11,15,08,55,10.30
2018,11,15,08,56,10.30
2018,11,15,08,57,10.30
2018,11,15,08,58,10.30
2018,11,15,08,59,10.30
2018,11,15,09,00,10.30
2018,11,15,09,01,10.30
2018,11,15,09,02,10.30
2018,11,15,09,03,10.30
2018,11,15,09,04,10.30
2018,11,15,09,05,10.40
2018,11,15,09,06,10.40
2018,11,15,09,07,10.40
2018,11,15,09,08,10.40
2018,11,15,09,09,10.40
2018,11,15,09,10,10.40
2018,11,15,09,11,10.40
2018,11,15,09,12,10.40
2018,11,15,09,13,10.40
2018,11,15,09,14,10.30
2018,11,15,09,15,10.30
2018,11,15,09,16,10.30
2018,11,15,09,17,10.30
2018,11,15,09,18,10.30
2018,11,15,09,19,10.30
2018,11,15,09,20,10.30
2018,11,15,09,21,10.30
2018,11,15,09,22,10.30
2018,11,15,09,23,10.30
2018,11,15,09,24,10.30
2018,11,15,09,25,10.30
2018,11,15,09,26,10.30
2018,11,15,09,27,10.30
2018,11,15,09,28,10.30
2018,11,15,09,29,10.30
2018,11,15,09,30,10.30
2018,11,15,09,31,10.30
2018,11,15,09,32,10.30
2018,11,15,09,33,10.30
2018,11,15,09,34,10.30
2018,11,15,09,35,10.30
2018,11,15,09,36,10.30
2018,11,15,09,37,10.30
2018,11,15,09,38,10.30
2018,11,15,09,39,10.30
2018,11,15,09,40,10.30
2018,11,15,09,41,10.30
2018,11,15,09,42,10.30
2018,11,15,09,43,10.30
2018,11,15,09,44,10.30
2018,11,15,09,45,10.20
2018,11,15,09,46,10.20
2018,11,15,09,47,10.20
2018,11,15,09,48,10.20
2018,11,15,09,49,10.20
2018,11,15,09,50,10.20
2018,11,15,09,51,10.20
2018,11,15,09,52,10.20
2018,11,15,09,53,10.20
2018,11,15,09,54,10.20
2018,11,15,09,55,10.20
2018,11,15,09,56,10.20
2018,11,15,09,57,10.20
2018,11,15,09,58,10.20
2018,11,15,09,59,10.20
2018,11,15,10,00,10.20
2018,11,15,10,01,10.20
2018,11,15,10,02,10.20
2018,11,15,10,03,10.20
2018,11,15,10,04,10.20
2018,11,15,10,05,10.20
2018,11,15,10,06,10.20
2018,11,15,10,07,10.20
2018,11,15,10,08,10.20
2018,11,15,10,09,10.20
2018,11,15,10,10,10.20
2018,11,15,10,11,10.20
2018,11,15,10,12,10.20
2018,11,15,10,13,10.20
2018,11,15,10,14,10.20
2018,11,15,10,15,10.20
2018,11,15,10,16,10.20
2018,11,15,10,17,10.20
2018,11,15,10,18,10.20
2018,11,15,10,19,10.20
2018,11,15,10,20,10.20
2018,11,15,10,21,10.20
2018,11,15,10,22,10.20
2018,11,15,10,23,10.20
2018,11,15,10,24,10.20
2018,11,15,10,25,10.20
2018,11,15,10,26,10.20
2018,11,15,10,27,10.20
2018,11,15,10,28,10.20
2018,11,15,10,29,10.20
2018,11,15,10,30,10.20
2018,11,15,10,31,10.20
2018,11,15,10,32,10.20
2018,11,15,10,33,10.20
2018,11,15,10,34,10.20
2018,11,15,10,35,10.20
2018,11,15,10,36,10.20
2018,11,15,10,37,10.20
2018,11,15,10,38,10.20
2018,11,15,10,39,10.20
2018,11,15,10,40,10.20
2018,11,15,10,41,10.20
2018,11,15,10,42,10.20
2018,11,15,10,43,10.20
2018,11,15,10,44,10.20
2018,11,15,10,45,10.20
2018,11,15,10,46,10.20
2018,11,15,10,47,10.20
2018,11,15,10,48,10.20
2018,11,15,10,49,10.20
2018,11,15,10,50,10.20
2018,11,15,10,51,10.20
2018,11,15,10,52,10.20
2018,11,15,10,53,10.20
2018,11,15,10,54,10.20
2018,11,15,10,55,10.20
2018,11,15,10,56,10.20
2018,11,15,10,57,10.20
2018,11,15,10,58,10.20
2018,11,15,10,59,10.20
2018,11,15,11,00,10.20
2018,11,15,11,01,10.20
2018,11,15,11,02,10.20
2018,11,15,11,03,10.20
2018,11,15,11,04,10.20
2018,11,15,11,05,10.20
2018,11,15,11,06,10.20
2018,11,15,11,07,10.20
2018,11,15,11,08,10.20
2018,11,15,11,09,10.20
2018,11,15,11,10,10.20
2018,11,15,11,11,10.20
2018,11,15,11,12,10.20
2018,11,15,11,13,10.20
2018,11,15,11,14,10.20
2018,11,15,11,15,10.20
2018,11,15,11,16,10.30
2018,11,15,11,17,10.30
2018,11,15,11,18,10.30
2018,11,15,11,19,10.30
2018,11,15,11,20,10.30
2018,11,15,11,21,10.40
2018,11,15,11,22,10.40
2018,11,15,11,23,10.40
2018,11,15,11,24,10.40
2018,11,15,11,25,10.40
2018,11,15,11,26,10.40
2018,11,15,11,27,10.40
2018,11,15,11,28,10.40
2018,11,15,11,29,10.40
2018,11,15,11,30,10.40
2018,11,15,11,31,10.40
2018,11,15,11,32,10.40
2018,11,15,11,33,10.40
2018,11,15,11,34,10.40
2018,11,15,11,35,10.40
2018,11,15,11,36,10.40
2018,11,15,11,37,10.40
2018,11,15,11,38,10.40
2018,11,15,11,39,10.40
2018,11,15,11,40,10.40
2018,11,15,11,41,10.40
2018,11,15,11,42,10.40
2018,11,15,11,43,10.30
2018,11,15,11,44,10.30
2018,11,15,11,45,10.30
2018,11,15,11,46,10.30
2018,11,15,11,47,10.30
2018,11,15,11,48,10.30
2018,11,15,11,49,10.30
2018,11,15,11,50,10.30
2018,11,15,11,51,10.30
2018,11,15,11,52,10.30
2018,11,15,11,53,10.30
2018,11,15,11,54,10.30
2018,11,15,11,55,10.30
2018,11,15,11,56,10.30
2018,11,15,11,57,10.30
2018,11,15,11,58,10.30
2018,11,15,11,59,10.30
2018,11,15,12,00,10.30
2018,11,15,12,01,10.30
2018,11,15,12,02,10.30
2018,11,15,12,03,10.30
2018,11,15,12,04,10.30
2018,11,15,12,05,10.30
2018,11,15,12,06,10.30
2018,11,15,12,07,10.30
2018,11,15,12,08,10.30
2018,11,15,12,09,10.30
2018,11,15,12,10,10.30
2018,11,15,12,11,10.30
2018,11,15,12,12,10.30
2018,11,15,12,13,10.30
2018,11,15,12,14,10.30
2018,11,15,12,15,10.30
2018,11,15,12,16,10.30
2018,11,15,12,17,10.30
2018,11,15,12,18,10.30
2018,11,15,12,19,10.30
2018,11,15,12,20,10.30
2018,11,15,12,21,10.30
2018,11,15,12,22,10.30
2018,11,15,12,23,10.30
2018,11,15,12,24,10.30
2018,11,15,12,25,10.30
2018,11,15,12,26,10.30
2018,11,15,12,27,10.30
2018,11,15,12,28,10.30
2018,11,15,12,29,10.30
2018,11,15,12,30,10.30
2018,11,15,12,31,10.40
2018,11,15,12,32,10.40
2018,11,15,12,33,10.40
2018,11,15,12,34,10.40
2018,11,15,12,35,10.40
2018,11,15,12,36,10.40
2018,11,15,12,37,10.40
2018,11,15,12,38,10.40
2018,11,15,12,39,10.40
2018,11,15,12,40,10.40
2018,11,15,12,41,10.40
2018,11,15,12,42,10.40
2018,11,15,12,43,10.40
2018,11,15,12,44,10.40
2018,11,15,12,45,10.40
2018,11,15,12,46,10.50
2018,11,15,12,47,10.50
2018,11,15,12,48,10.50
2018,11,15,12,49,10.50
2018,11,15,12,50,10.50
2018,11,15,12,51,10.50
2018,11,15,12,52,10.50
2018,11,15,12,53,10.50
2018,11,15,12,54,10.50
2018,11,15,12,55,10.50
2018,11,15,12,56,10.50
2018,11,15,12,57,10.50
2018,11,15,12,58,10.50
2018,11,15,12,59,10.50
2018,11,15,13,00,10.50
2018,11,15,13,01,10.50
2018,11,15,13,02,10.50
2018,11,15,13,03,10.50
2018,11,15,13,04,10.50
2018,11,15,13,05,10.60
2018,11,15,13,06,10.60
2018,11,15,13,07,10.60
2018,11,15,13,08,10.60
2018,11,15,13,09,10.60
2018,11,15,13,10,10.60
2018,11,15,13,11,10.60
2018,11,15,13,12,10.60
2018,11,15,13,13,10.60
2018,11,15,13,14,10.60
2018,11,15,13,15,10.60
2018,11,15,13,16,10.60
2018,11,15,13,17,10.60
2018,11,15,13,18,10.60
2018,11,15,13,19,10.60
2018,11,15,13,20,10.60
2018,11,15,13,21,10.70
2018,11,15,13,22,10.70
2018,11,15,13,23,10.70
2018,11,15,13,24,10.70
2018,11,15,13,25,10.70
2018,11,15,13,26,10.70
2018,11,15,13,27,10.70
2018,11,15,13,28,10.70
2018,11,15,13,29,10.70
2018,11,15,13,30,10.80
2018,11,15,13,31,10.80
2018,11,15,13,32,10.80
2018,11,15,13,33,10.80
2018,11,15,13,34,10.80
2018,11,15,13,35,10.80
2018,11,15,13,36,10.80
2018,11,15,13,37,10.80
2018,11,15,13,38,10.80
2018,11,15,13,39,10.80
2018,11,15,13,40,10.80
2018,11,15,13,41,10.80
2018,11,15,13,42,10.80
2018,11,15,13,43,10.80
2018,11,15,13,44,10.80
2018,11,15,13,45,10.80
2018,11,15,13,46,10.80
2018,11,15,13,47,10.80
2018,11,15,13,48,10.80
2018,11,15,13,49,10.80
2018,11,15,13,50,10.70
2018,11,15,13,51,10.70
2018,11,15,13,52,10.70
2018,11,15,13,53,10.70
2018,11,15,13,54,10.70
2018,11,15,13,55,10.70
2018,11,15,13,56,10.70
2018,11,15,13,57,10.70
2018,11,15,13,58,10.70
2018,11,15,13,59,10.70
2018,11,15,14,00,10.70
2018,11,15,14,01,10.70
2018,11,15,14,02,10.70
2018,11,15,14,03,10.70
2018,11,15,14,04,10.70
2018,11,15,14,05,10.70
2018,11,15,14,06,10.70
2018,11,15,14,07,10.70
2018,11,15,14,08,10.70
2018,11,15,14,09,10.70
2018,11,15,14,10,10.80
2018,11,15,14,11,10.80
2018,11,15,14,12,10.80
2018,11,15,14,13,10.80
2018,11,15,14,14,10.80
2018,11,15,14,15,10.80
2018,11,15,14,16,10.80
2018,11,15,14,17,10.80
2018,11,15,14,18,10.90
2018,11,15,14,19,10.90
2018,11,15,14,20,10.90
2018,11,15,14,21,10.90
2018,11,15,14,22,10.90
2018,11,15,14,23,10.90
2018,11,15,14,24,10.90
2018,11,15,14,25,11.00
2018,11,15,14,26,11.00
2018,11,15,14,27,11.00
2018,11,15,14,28,11.00
2018,11,15,14,29,11.00
2018,11,15,14,30,11.10
2018,11,15,14,31,11.10
2018,11,15,14,32,11.10
2018,11,15,14,33,11.10
2018,11,15,14,34,11.10
2018,11,15,14,35,11.10
2018,11,15,14,36,11.10
2018,11,15,14,37,11.10
2018,11,15,14,38,11.10
2018,11,15,14,39,11.10
2018,11,15,14,40,11.10
2018,11,15,14,41,11.20
2018,11,15,14,42,11.20
2018,11,15,14,43,11.20
2018,11,15,14,44,11.20
2018,11,15,14,45,11.20
2018,11,15,14,46,11.20
2018,11,15,14,47,11.20
2018,11,15,14,48,11.20
2018,11,15,14,49,11.20
2018,11,15,14,50,11.30
2018,11,15,14,51,11.30
2018,11,15,14,52,11.30
2018,11,15,14,53,11.30
2018,11,15,14,54,11.30
2018,11,15,14,55,11.30
2018,11,15,14,56,11.30
2018,11,15,14,57,11.30
2018,11,15,14,58,11.30
2018,11,15,14,59,11.30
2018,11,15,15,00,11.30
2018,11,15,15,01,11.30
2018,11,15,15,02,11.30
2018,11,15,15,03,11.30
2018,11,15,15,04,11.40
2018,11,15,15,05,11.40
2018,11,15,15,06,11.40
2018,11,15,15,07,11.40
2018,11,15,15,08,11.40
2018,11,15,15,09,11.40
2018,11,15,15,10,11.40
2018,11,15,15,11,11.50
2018,11,15,15,12,11.50
2018,11,15,15,13,11.50
2018,11,15,15,14,11.60
2018,11,15,15,15,11.60
2018,11,15,15,16,11.60
2018,11,15,15,17,11.60
2018,11,15,15,18,11.60
2018,11,15,15,19,11.60
2018,11,15,15,20,11.60
2018,11,15,15,21,11.70
2018,11,15,15,22,11.70
2018,11,15,15,23,11.70
2018,11,15,15,24,11.70
2018,11,15,15,25,11.70
2018,11,15,15,26,11.70
2018,11,15,15,27,11.70
2018,11,15,15,28,11.70
2018,11,15,15,29,11.70
2018,11,15,15,30,11.70
2018,11,15,15,31,11.70
2018,11,15,15,32,11.70
2018,11,15,15,33,11.80
2018,11,15,15,34,11.80
2018,11,15,15,35,11.80
2018,11,15,15,36,11.80
2018,11,15,15,37,11.80
2018,11,15,15,38,11.80
2018,11,15,15,39,11.80
2018,11,15,15,40,11.80
2018,11,15,15,41,11.80
2018,11,15,15,42,11.80
2018,11,15,15,43,11.80
2018,11,15,15,44,11.80
2018,11,15,15,45,11.80
2018,11,15,15,46,11.80
2018,11,15,15,47,11.80
2018,11,15,15,48,11.80
2018,11,15,15,49,11.80
2018,11,15,15,50,11.80
2018,11,15,15,51,11.80
2018,11,15,15,52,11.80
2018,11,15,15,53,11.80
2018,11,15,15,54,11.80
2018,11,15,15,55,11.80
2018,11,15,15,56,11.80
2018,11,15,15,57,11.70
2018,11,15,15,58,11.70
2018,11,15,15,59,11.70
2018,11,15,16,00,11.70
2018,11,15,16,01,11.70
2018,11,15,16,02,11.70
2018,11,15,16,03,11.70
2018,11,15,16,04,11.70
2018,11,15,16,05,11.70
2018,11,15,16,06,11.60
2018,11,15,16,07,11.60
2018,11,15,16,08,11.60
2018,11,15,16,09,11.60
2018,11,15,16,10,11.60
2018,11,15,16,11,11.60
2018,11,15,16,12,11.60
2018,11,15,16,13,11.60
2018,11,15,16,14,11.60
2018,11,15,16,15,11.50
2018,11,15,16,16,11.50
2018,11,15,16,17,11.50
2018,11,15,16,18,11.50
2018,11,15,16,19,11.50
2018,11,15,16,20,11.40
2018,11,15,16,21,11.40
2018,11,15,16,22,11.40
2018,11,15,16,23,11.40
2018,11,15,16,24,11.40
2018,11,15,16,25,11.40
2018,11,15,16,26,11.30
2018,11,15,16,27,11.30
2018,11,15,16,28,11.30
2018,11,15,16,29,11.30
2018,11,15,16,30,11.30
2018,11,15,16,31,11.30
2018,11,15,16,32,11.20
2018,11,15,16,33,11.20
2018,11,15,16,34,11.20
2018,11,15,16,35,11.20
2018,11,15,16,36,11.20
2018,11,15,16,37,11.20
2018,11,15,16,38,11.20
2018,11,15,16,39,11.20
2018,11,15,16,40,11.20
2018,11,15,16,41,11.20
2018,11,15,16,42,11.20
2018,11,15,16,43,11.20
2018,11,15,16,44,11.20
2018,11,15,16,45,11.20
2018,11,15,16,46,11.20
2018,11,15,16,47,11.20
2018,11,15,16,48,11.20
2018,11,15,16,49,11.20
2018,11,15,16,50,11.10
2018,11,15,16,51,11.10
2018,11,15,16,52,11.10
2018,11,15,16,53,11.10
2018,11,15,16,54,11.10
2018,11,15,16,55,11.10
2018,11,15,16,56,11.10
2018,11,15,16,57,11.10
2018,11,15,16,58,11.10
2018,11,15,16,59,11.10
2018,11,15,17,00,11.10
2018,11,15,17,01,11.10
2018,11,15,17,02,11.10
2018,11,15,17,03,11.10
2018,11,15,17,04,11.10
2018,11,15,17,05,11.10
2018,11,15,17,06,11.10
2018,11,15,17,07,11.10
2018,11,15,17,08,11.10
2018,11,15,17,09,11.10
2018,11,15,17,10,11.10
2018,11,15,17,11,11.10
2018,11,15,17,12,11.10
2018,11,15,17,13,11.10
2018,11,15,17,14,11.10
2018,11,15,17,15,11.10
2018,11,15,17,16,11.10
2018,11,15,17,17,11.10
2018,11,15,17,18,11.10
2018,11,15,17,19,11.10
2018,11,15,17,20,11.10
2018,11,15,17,21,11.10
2018,11,15,17,22,11.10
2018,11,15,17,23,11.10
2018,11,15,17,24,11.10
2018,11,15,17,25,11.10
2018,11,15,17,26,11.10
2018,11,15,17,27,11.10
2018,11,15,17,28,11.10
2018,11,15,17,29,11.10
2018,11,15,17,30,11.10
2018,11,15,17,31,11.10
2018,11,15,17,32,11.10
2018,11,15,17,33,11.00
2018,11,15,17,34,11.00
2018,11,15,17,35,11.00
2018,11,15,17,36,11.00
2018,11,15,17,37,11.00
2018,11,15,17,38,11.00
2018,11,15,17,39,11.00
2018,11,15,17,40,11.00
2018,11,15,17,41,11.00
2018,11,15,17,42,11.00
2018,11,15,17,43,11.00
2018,11,15,17,44,11.00
2018,11,15,17,45,11.00
2018,11,15,17,46,10.90
2018,11,15,17,47,10.90
2018,11,15,17,48,10.90
2018,11,15,17,49,10.90
2018,11,15,17,50,10.90
2018,11,15,17,51,10.90
2018,11,15,17,52,10.90
2018,11,15,17,53,10.90
2018,11,15,17,54,10.90
2018,11,15,17,55,10.90
2018,11,15,17,56,10.90
2018,11,15,17,57,10.90
2018,11,15,17,58,10.90
2018,11,15,17,59,10.90
2018,11,15,18,00,10.90
2018,11,15,18,01,10.90
2018,11,15,18,02,10.90
2018,11,15,18,03,10.90
2018,11,15,18,04,10.80
2018,11,15,18,05,10.90
2018,11,15,18,06,10.80
2018,11,15,18,07,10.80
2018,11,15,18,08,10.80
2018,11,15,18,09,10.80
2018,11,15,18,10,10.80
2018,11,15,18,11,10.80
2018,11,15,18,12,10.80
2018,11,15,18,13,10.80
2018,11,15,18,14,10.80
2018,11,15,18,15,10.80
2018,11,15,18,16,10.80
2018,11,15,18,17,10.80
2018,11,15,18,18,10.80
2018,11,15,18,19,10.80
2018,11,15,18,20,10.80
2018,11,15,18,21,10.80
2018,11,15,18,22,10.80
2018,11,15,18,23,10.80
2018,11,15,18,24,10.80
2018,11,15,18,25,10.80
2018,11,15,18,26,10.80
2018,11,15,18,27,10.80
2018,11,15,18,28,10.80
2018,11,15,18,29,10.80
2018,11,15,18,30,10.80
2018,11,15,18,31,10.80
2018,11,15,18,32,10.80
2018,11,15,18,33,10.80
2018,11,15,18,34,10.80
2018,11,15,18,35,10.80
2018,11,15,18,36,10.80
2018,11,15,18,37,10.80
2018,11,15,18,38,10.80
2018,11,15,18,39,10.80
2018,11,15,18,40,10.80
2018,11,15,18,41,10.80
2018,11,15,18,42,10.80
2018,11,15,18,43,10.80
2018,11,15,18,44,10.80
2018,11,15,18,45,10.80
2018,11,15,18,46,10.80
2018,11,15,18,47,10.80
2018,11,15,18,48,10.90
2018,11,15,18,49,10.90
2018,11,15,18,50,10.90
2018,11,15,18,51,10.90
2018,11,15,18,52,10.90
2018,11,15,18,53,10.90
2018,11,15,18,54,10.90
2018,11,15,18,55,10.90
2018,11,15,18,56,10.90
2018,11,15,18,57,10.90
2018,11,15,18,58,10.90
2018,11,15,18,59,10.90
2018,11,15,19,00,10.90
2018,11,15,19,01,10.90
2018,11,15,19,02,10.90
2018,11,15,19,03,10.90
2018,11,15,19,04,10.90
2018,11,15,19,05,10.90
2018,11,15,19,06,10.90
2018,11,15,19,07,11.00
2018,11,15,19,08,11.00
2018,11,15,19,09,11.00
2018,11,15,19,10,11.00
2018,11,15,19,11,11.00
2018,11,15,19,12,11.00
2018,11,15,19,13,11.00
2018,11,15,19,14,11.00
2018,11,15,19,15,11.00
2018,11,15,19,16,11.10
2018,11,15,19,17,11.10
2018,11,15,19,18,11.10
2018,11,15,19,19,11.10
2018,11,15,19,20,11.10
2018,11,15,19,21,11.10
2018,11,15,19,22,11.10
2018,11,15,19,23,11.10
2018,11,15,19,24,11.10
2018,11,15,19,25,11.10
2018,11,15,19,26,11.10
2018,11,15,19,27,11.10
2018,11,15,19,28,11.10
2018,11,15,19,29,11.10
2018,11,15,19,30,11.10
2018,11,15,19,31,11.10
2018,11,15,19,32,11.10
2018,11,15,19,33,11.10
2018,11,15,19,34,11.10
2018,11,15,19,35,11.10
2018,11,15,19,36,11.10
2018,11,15,19,37,11.10
2018,11,15,19,38,11.10
2018,11,15,19,39,11.10
2018,11,15,19,40,11.10
2018,11,15,19,41,11.10
2018,11,15,19,42,11.10
2018,11,15,19,43,11.10
2018,11,15,19,44,11.10
2018,11,15,19,45,11.10
2018,11,15,19,46,11.20
2018,11,15,19,47,11.20
2018,11,15,19,48,11.30
2018,11,15,19,49,11.30
2018,11,15,19,50,11.40
2018,11,15,19,51,11.50
2018,11,15,19,52,11.50
2018,11,15,19,53,11.60
2018,11,15,19,54,11.70
2018,11,15,19,55,11.70
2018,11,15,19,56,11.80
2018,11,15,19,57,11.80
2018,11,15,19,58,11.80
2018,11,15,19,59,11.80
2018,11,15,20,00,11.80
2018,11,15,20,01,11.90
2018,11,15,20,02,11.90
2018,11,15,20,03,11.90
2018,11,15,20,04,11.90
2018,11,15,20,05,12.00
2018,11,15,20,06,12.00
2018,11,15,20,07,12.10
2018,11,15,20,08,12.10
2018,11,15,20,09,12.10
2018,11,15,20,10,12.10
2018,11,15,20,11,12.10
2018,11,15,20,12,12.20
2018,11,15,20,13,12.20
2018,11,15,20,14,12.20
2018,11,15,20,15,12.30
2018,11,15,20,16,12.30
2018,11,15,20,17,12.30
2018,11,15,20,18,12.30
2018,11,15,20,19,12.40
2018,11,15,20,20,12.40
2018,11,15,20,21,12.40
2018,11,15,20,22,12.40
2018,11,15,20,23,12.40
2018,11,15,20,24,12.40
2018,11,15,20,25,12.40
2018,11,15,20,26,12.40
2018,11,15,20,27,12.40
2018,11,15,20,28,12.40
2018,11,15,20,29,12.40
2018,11,15,20,30,12.50
2018,11,15,20,31,12.50
2018,11,15,20,32,12.50
2018,11,15,20,33,12.50
2018,11,15,20,34,12.50
2018,11,15,20,35,12.50
2018,11,15,20,36,12.50
2018,11,15,20,37,12.50
2018,11,15,20,38,12.50
2018,11,15,20,39,12.50
2018,11,15,20,40,12.50
2018,11,15,20,41,12.60
2018,11,15,20,42,12.60
2018,11,15,20,43,12.60
2018,11,15,20,44,12.60
2018,11,15,20,45,12.60
2018,11,15,20,46,12.60
2018,11,15,20,47,12.60
2018,11,15,20,48,12.50
2018,11,15,20,49,12.50
2018,11,15,20,50,12.60
2018,11,15,20,51,12.50
2018,11,15,20,52,12.50
2018,11,15,20,53,12.60
2018,11,15,20,54,12.60
2018,11,15,20,55,12.60
2018,11,15,20,56,12.60
2018,11,15,20,57,12.60
2018,11,15,20,58,12.60
2018,11,15,20,59,12.60
2018,11,15,21,00,12.60
2018,11,15,21,01,12.60
2018,11,15,21,02,12.60
2018,11,15,21,03,12.60
2018,11,15,21,04,12.70
2018,11,15,21,05,12.70
2018,11,15,21,06,12.70
2018,11,15,21,07,12.70
2018,11,15,21,08,12.70
2018,11,15,21,09,12.70
2018,11,15,21,10,12.70
2018,11,15,21,11,12.70
2018,11,15,21,12,12.70
2018,11,15,21,13,12.70
2018,11,15,21,14,12.70
2018,11,15,21,15,12.70
2018,11,15,21,16,12.70
2018,11,15,21,17,12.70
2018,11,15,21,18,12.70
2018,11,15,21,19,12.70
2018,11,15,21,20,12.70
2018,11,15,21,21,12.70
2018,11,15,21,22,12.70
2018,11,15,21,23,12.70
2018,11,15,21,24,12.70
2018,11,15,21,25,12.70
2018,11,15,21,26,12.70
2018,11,15,21,27,12.70
2018,11,15,21,28,12.70
2018,11,15,21,29,12.70
2018,11,15,21,30,12.70
2018,11,15,21,31,12.70
2018,11,15,21,32,12.70
2018,11,15,21,33,12.70
2018,11,15,21,34,12.70
2018,11,15,21,35,12.70
2018,11,15,21,36,12.80
2018,11,15,21,37,12.80
2018,11,15,21,38,12.80
2018,11,15,21,39,12.90
2018,11,15,21,40,12.90
2018,11,15,21,41,12.90
2018,11,15,21,42,12.90
2018,11,15,21,43,12.90
2018,11,15,21,44,12.90
2018,11,15,21,45,12.90
2018,11,15,21,46,13.00
2018,11,15,21,47,13.00
2018,11,15,21,48,13.00
2018,11,15,21,49,13.00
2018,11,15,21,50,13.10
2018,11,15,21,51,13.10
2018,11,15,21,52,13.10
2018,11,15,21,53,13.10
2018,11,15,21,54,13.10
2018,11,15,21,55,13.10
2018,11,15,21,56,13.20
2018,11,15,21,57,13.20
2018,11,15,21,58,13.20
2018,11,15,21,59,13.20
2018,11,15,22,00,13.20
2018,11,15,22,01,13.20
2018,11,15,22,02,13.20
2018,11,15,22,03,13.20
2018,11,15,22,04,13.20
2018,11,15,22,05,13.20
2018,11,15,22,06,13.20
2018,11,15,22,07,13.20
2018,11,15,22,08,13.20
2018,11,15,22,09,13.20
2018,11,15,22,10,13.20
2018,11,15,22,11,13.20
2018,11,15,22,12,13.20
2018,11,15,22,13,13.20
2018,11,15,22,14,13.20
2018,11,15,22,15,13.20
2018,11,15,22,16,13.20
2018,11,15,22,17,13.20
2018,11,15,22,18,13.20
2018,11,15,22,19,13.30
2018,11,15,22,20,13.30
2018,11,15,22,21,13.30
2018,11,15,22,22,13.30
2018,11,15,22,23,13.30
2018,11,15,22,24,13.30
2018,11,15,22,25,13.30
2018,11,15,22,26,13.30
2018,11,15,22,27,13.30
2018,11,15,22,28,13.30
2018,11,15,22,29,13.30
2018,11,15,22,30,13.30
2018,11,15,22,31,13.30
2018,11,15,22,32,13.20
2018,11,15,22,33,13.20
2018,11,15,22,34,13.20
2018,11,15,22,35,13.20
2018,11,15,22,36,13.20
2018,11,15,22,37,13.20
2018,11,15,22,38,13.20
2018,11,15,22,39,13.20
2018,11,15,22,40,13.20
2018,11,15,22,41,13.20
2018,11,15,22,42,13.20
2018,11,15,22,43,13.20
2018,11,15,22,44,13.20
2018,11,15,22,45,13.20
2018,11,15,22,46,13.20
2018,11,15,22,47,13.20
2018,11,15,22,48,13.20
2018,11,15,22,49,13.20
2018,11,15,22,50,13.20
2018,11,15,22,51,13.20
2018,11,15,22,52,13.20
2018,11,15,22,53,13.20
2018,11,15,22,54,13.20
2018,11,15,22,55,13.20
2018,11,15,22,56,13.20